Tracking 20621 objects as of 1-Apr-2020
HD Live streaming from Space Station
objects crossing your sky now

DMSP 5D-2 F11 DEB

Track DMSP 5D-2 F11 DEB now!
10-day predictions


NORAD ID: 28327
Int'l Code: 1991-082AQ
Perigee: 786.9 km
Apogee: 832.0 km
Inclination: 98.8 °
Period: 100.9 minutes
Semi major axis: 7180 km
RCS: 0.0132 m2 (small)
Launch date: November 28, 1991
Source: United States (US)
Launch site: AIR FORCE WESTERN TEST RANGE (AFWTR)

Note: This is SATELLITE DEBRIS
aabbcc
Your satellite tracking list
Your tracking list is empty




NASA's NSSDC Master Catalog

Two Line Element Set (TLE):
1 28327U 91082AQ  20090.83618966 +.00000710 +00000-0 +30959-3 0  9997
2 28327 098.8218 125.5530 0031369 170.1771 002.7975 14.26843515351296
Source of the keplerian elements: AFSPC